Temp
11 12 13 14 14 14 13 13 13 12 12 12 12 12 12 11 11 11 11 12 12 12
11 12 12 12 13 13 13 13 12 12 12 12 12 12 11 11 11 11 11 11 11 11
12 12 12 11 12 12 13 12 12 12 12 12 11 11 11 11 11 11 11 11 11 11
13 12 11 11 11 11 11 11 11 11 11 10 10 11 11 11 11 10 10 10 10 10
12 12 12 12 11 12 11 10 10 10 11 10 11 10 10 10 10 9 9 10 9 10
11 11 11 11 11 11 11 11 11 10 10 10 9 9 9 10 11 10 10 10 9 9
10 11 11 11 11 11 11 11 9 9 10 10 11 9 9 9 8 8 8 8 9 9
9 10 10 11 11 11 11 11 11 10 9 9 9 9 9 8 7 7 7 8 7 7
7 8 9 9 10 10 10 10 10 10 10 9 9 9 8 8 7 6 6 6 6 7
6 6 7 8 9 9 9 9 10 9 9 9 9 9 8 7 7 6 5 5 5 6
4 5 5 6 7 7 8 8 8 9 9 8 8 9 8 6 6 5 5 6 6 6
3 4 4 5 5 6 7 7 7 8 8 8 8 7 6 5 5 5 4 4 4 4
2 2 3 3 4 5 6 6 6 7 7 7 7 7 6 5 4 3 3 2 2 3
1 1 1 2 3 4 5 5 5 5 6 6 6 6 6 5 4 3 2 1 1 1
Height
747 755 761 768 771 776 781 784 790 796 802 807 812 816 821 826 830 834 837 841 844 846
747 752 759 765 769 775 780 783 787 792 798 802 806 811 816 820 824 830 834 837 840 841
744 749 757 763 766 772 777 779 784 788 794 799 803 807 812 815 819 823 826 831 834 835
743 749 753 757 762 768 775 777 779 783 788 793 796 803 805 809 812 817 820 824 828 828
744 749 753 754 758 764 768 770 773 775 780 785 790 795 800 804 807 813 817 820 823 823
746 749 752 753 759 761 760 759 768 774 777 781 782 787 794 796 798 806 810 816 817 818
745 748 750 754 757 758 755 761 768 772 776 776 774 780 785 792 797 800 803 809 812 814
751 751 752 755 753 756 755 761 764 767 769 769 772 777 782 788 792 796 798 802 804 809
752 752 752 752 755 754 756 760 762 765 767 769 773 775 779 783 788 791 794 796 801 806
757 756 754 753 753 755 758 760 762 763 767 769 770 773 776 780 783 786 789 792 799 803
758 758 757 757 758 760 761 763 764 765 765 766 768 770 773 777 780 783 786 789 794 799
760 757 757 756 758 759 760 761 761 762 762 764 766 768 771 773 777 780 784 789 793 796
762 760 759 756 757 758 758 758 758 760 761 762 763 765 768 770 774 777 781 786 791 795
764 761 759 756 757 757 756 756 757 757 759 760 761 763 765 767 771 774 778 782 788 794
Wind_Speed
21 20 19 22 23 27 29 30 27 30 28 27 26 25 25 26 28 28 27 25 22 18
24 22 21 20 20 22 22 21 24 27 27 27 26 26 25 26 27 25 25 26 24 21
21 25 29 26 23 25 25 23 20 22 23 23 23 24 25 24 25 26 27 28 25 22
18 19 22 26 31 27 25 25 25 25 24 23 25 28 27 30 26 28 26 30 29 27
22 23 22 17 14 19 31 29 27 25 25 31 30 28 29 27 26 24 25 29 26 24
14 17 17 15 17 19 14 10 14 20 23 30 31 34 35 34 34 31 32 33 31 29
6 5 8 10 12 13 11 15 18 20 20 19 19 27 34 36 34 37 39 35 30 28
3 2 1 5 6 9 9 13 15 15 17 16 20 25 32 37 40 39 38 33 30 32
10 7 5 2 3 6 9 11 13 16 19 20 22 23 26 31 35 35 32 32 33 33
11 8 6 6 2 3 7 11 11 14 18 20 20 20 23 26 28 30 32 33 35 30
12 10 7 5 2 1 3 7 10 13 16 18 20 21 22 27 27 28 31 35 35 33
15 13 10 9 7 3 3 6 9 12 16 18 20 20 24 29 27 28 30 31 32 35
15 13 12 11 8 6 5 5 6 8 10 14 17 16 22 30 28 26 27 27 31 34
16 15 14 13 12 9 7 5 4 6 7 9 12 13 22 29 29 29 28 29 30 30
Wind_Direction
185 189 186 195 192 194 196 200 199 201 203 205 206 205 205 207 207 207 208 209 210 209
200 203 204 205 197 198 202 202 201 204 204 205 204 205 205 207 211 212 214 214 215 214
206 219 224 219 221 218 217 209 198 201 205 205 207 207 205 211 213 212 213 214 212 213
214 231 204 212 220 221 228 229 222 217 206 206 208 212 210 215 213 212 213 215 214 211
204 208 224 224 223 213 225 223 221 223 225 221 222 217 213 212 214 213 213 219 216 212
186 200 207 202 210 217 220 231 229 224 215 219 219 223 224 220 219 225 227 226 220 209
79 194 211 217 223 221 215 211 206 212 218 221 222 232 230 229 230 229 224 222 220 226
45 44 205 229 230 226 216 223 228 228 221 222 224 224 228 227 222 220 221 222 224 222
36 56 43 54 217 227 224 221 220 220 221 219 222 226 227 224 216 217 215 212 212 206
33 39 46 34 5 258 229 218 222 226 225 226 229 234 231 227 222 213 210 203 198 191
23 20 22 31 35 249 217 215 214 223 230 232 235 239 234 221 216 210 204 205 202 195
4 7 9 13 353 324 270 255 249 243 234 233 235 234 218 205 205 205 205 206 204 197
360 1 357 1 344 327 305 280 263 254 245 239 240 233 212 205 201 192 190 194 193 194
353 353 353 349 338 329 317 292 265 249 248 243 238 232 215 214 207 195 179 177 176 177